[[{"header":{"parameterUnit":"m.s-1","parameterCategory":1,"la1":30.2992,"la2":30.254,"lo1":-89.0895,"lo2":-89.0443,"dy":0.0025,"dx":0.0025,"nx":19,"ny":19,"refTime":"2026-04-08T21:00:00:Z","depth":0,"parameterNumber":2,"parameterNumberName":"U-component_of_WINDS"},"data":[0,0,0,-5.6321,-5.6325,-5.6523,-5.6524,-5.6799,-5.6802,0,0,0,0,0,0,0,0,0,0,0,-5.6273,-5.6276,-5.6321,-5.6326,-5.6523,-5.6524,-5.6799,-5.6802,0,0,0,0,0,0,0,0,0,0,0,-5.6272,-5.6275,-5.6278,-5.6327,-5.6523,-5.6524,-5.6798,-5.6642,0,0,0,0,0,0,0,0,0,0,-5.6446,-5.6412,-5.6274,-5.6278,-5.6328,-5.6523,-5.6524,-5.6634,-5.6652,-5.6719,0,-5.6779,0,-5.6795,-5.6822,-5.6823,0,0,0,-5.6318,-5.6398,-5.6441,-5.6278,-5.633,-5.6523,-5.6432,-5.6643,-5.6664,-5.6742,-5.6782,-5.6792,-5.6799,-5.6824,-5.6825,-5.7232,-5.7235,0,0,-5.6307,-5.6315,-5.6427,-5.6454,-5.6422,-5.6426,-5.6438,-5.6655,-5.6701,-5.6783,-5.6798,-5.6804,-5.6825,-5.6828,-5.723,-5.7233,0,0,0,-5.6281,-5.6308,-5.6345,-5.6443,-5.6477,-5.6432,-5.6446,-5.6691,-5.6702,-5.6801,-5.6807,-5.6827,-5.6831,-5.7228,-5.7231,-5.7352,0,0,0,-5.6274,-5.6293,-5.6341,-5.6348,-5.6473,-5.6586,-5.6478,-5.6688,-5.6712,-5.6806,-5.6827,-5.6834,-5.7225,-5.723,-5.7344,-5.741,0,0,0,-5.6257,-5.629,-5.6323,-5.6348,-5.6433,-5.6582,-5.6606,-5.6692,-5.6716,-5.6823,-5.6834,-5.7224,-5.7229,-5.7336,-5.7397,-5.7522,0,0,0,-5.6241,-5.6427,-5.6325,-5.6534,-5.6432,-5.6654,-5.6604,-5.677,-5.6876,-5.6829,-5.7226,-5.7231,-5.7333,-5.7389,-5.7514,-5.7632,-5.768,0,0,-5.648,-5.6456,-5.6579,-5.6493,-5.6736,-5.6623,-5.6885,-5.6975,-5.6978,-5.7148,-5.7158,-5.7347,-5.7396,-5.752,-5.7943,-5.7982,0,0,0,-5.6657,-5.6746,-5.6809,-5.6909,-5.6981,-5.705,-5.7098,-5.7132,-5.7275,-5.7066,-5.7423,-5.7452,-5.7525,-5.7582,-5.7615,-5.7678,-5.7256,-5.7255,-5.7255,-5.701,-5.7003,-5.7207,-5.7225,-5.7323,-5.7371,-5.7451,-5.7505,-5.747,-5.7554,-5.7606,-5.7863,-5.7929,-5.7954,-5.802,-5.7664,-5.7665,-5.7665,-5.7665,-5.7363,-5.749,-5.7437,-5.7617,-5.761,-5.7761,-5.7815,-5.7785,-5.7928,-5.7823,-5.7887,-5.7777,-5.7996,-5.8055,-5.7675,-5.7673,-5.7672,-5.7671,-5.767,-5.7597,-5.7657,-5.7693,-5.7838,-5.7952,-5.7963,-5.8102,-5.8089,-5.8079,-5.8141,-5.8198,-5.8196,-5.8196,-5.8168,-5.8169,-5.817,-5.8171,-5.8171,-5.8172,-5.7828,-5.7864,-5.7982,-5.8074,-5.8138,-5.822,-5.8271,-5.8334,-5.8402,-5.8382,-5.8382,-5.8342,-5.8017,-5.7938,-5.8186,-5.8183,-5.8181,-5.818,-5.8179,-5.8196,-5.811,-5.8293,-5.8357,-5.8465,-5.8581,-5.8561,-5.8692,-5.8742,-5.8812,-5.8757,-5.8517,-5.8493,-5.8466,-5.8402,-5.8754,-5.8754,-5.8754,-5.8755,-5.8397,-5.8382,-5.8566,-5.867,-5.877,-5.8771,-5.8982,-5.9023,-5.9053,-5.9085,-5.9031,-5.8942,-5.8915,-5.8907,-5.8871,-5.8811,-5.926,-5.926,-5.9261,-5.8626,-5.8619,-5.88,-5.8825,-5.8909,-5.8983,-5.9181,-5.9305,-5.9321,-5.9281,-5.911,-5.9089,-5.8946,-5.8898,-5.8859,-5.8804,-5.8692,0,0]},{"header":{"parameterUnit":"m.s-1","parameterCategory":1,"la1":30.2992,"la2":30.254,"lo1":-89.0895,"lo2":-89.0443,"dy":0.0025,"dx":0.0025,"nx":19,"ny":19,"refTime":"2026-04-08T21:00:00:Z","depth":0,"parameterNumber":3,"parameterNumberName":"V-component_of_WINDS"},"data":[0,0,0,-1.7544,-1.7543,-1.7516,-1.7516,-1.7497,-1.7497,0,0,0,0,0,0,0,0,0,0,0,-1.7562,-1.7562,-1.7544,-1.7543,-1.7516,-1.7516,-1.7497,-1.7497,0,0,0,0,0,0,0,0,0,0,0,-1.7561,-1.7562,-1.7562,-1.7543,-1.7516,-1.7516,-1.7497,-1.7512,0,0,0,0,0,0,0,0,0,0,-1.7535,-1.7562,-1.7562,-1.7562,-1.7543,-1.7516,-1.7516,-1.7512,-1.7511,-1.7516,0,-1.7523,0,-1.751,-1.7496,-1.7496,0,0,0,-1.7536,-1.7563,-1.7547,-1.7562,-1.7543,-1.7516,-1.7526,-1.7511,-1.7509,-1.7514,-1.7523,-1.7522,-1.7509,-1.7496,-1.7496,-1.755,-1.7551,0,0,-1.7537,-1.7562,-1.7548,-1.7546,-1.7552,-1.7527,-1.7525,-1.751,-1.7521,-1.7523,-1.7521,-1.7509,-1.7496,-1.7496,-1.755,-1.755,0,0,0,-1.7547,-1.7564,-1.7547,-1.7547,-1.7541,-1.7527,-1.7525,-1.7522,-1.7514,-1.7521,-1.7509,-1.7496,-1.7496,-1.7549,-1.755,-1.7603,0,0,0,-1.7547,-1.7569,-1.7548,-1.7563,-1.7542,-1.7531,-1.7537,-1.7515,-1.7513,-1.7509,-1.7496,-1.7496,-1.7548,-1.755,-1.76,-1.7624,0,0,0,-1.756,-1.757,-1.757,-1.7564,-1.7554,-1.7531,-1.7522,-1.7514,-1.7506,-1.7496,-1.7496,-1.7548,-1.7549,-1.7597,-1.7619,-1.7644,0,0,0,-1.7581,-1.7618,-1.7571,-1.7608,-1.7554,-1.7564,-1.7522,-1.7529,-1.7527,-1.7496,-1.7548,-1.755,-1.7597,-1.7617,-1.7641,-1.7669,-1.7683,0,0,-1.7642,-1.7626,-1.7646,-1.7603,-1.7628,-1.7566,-1.7599,-1.7574,-1.755,-1.7551,-1.7552,-1.7601,-1.7619,-1.7643,-1.7754,-1.7765,0,0,0,-1.7674,-1.7688,-1.7689,-1.7688,-1.767,-1.7655,-1.7622,-1.7613,-1.7612,-1.7556,-1.7616,-1.7626,-1.764,-1.7651,-1.7661,-1.767,-1.7557,-1.7557,-1.7556,-1.7795,-1.7762,-1.7792,-1.7756,-1.7756,-1.7721,-1.7717,-1.7698,-1.7666,-1.7681,-1.7681,-1.7752,-1.7766,-1.7773,-1.7783,-1.7693,-1.7693,-1.7694,-1.7694,-1.788,-1.7895,-1.785,-1.7863,-1.7828,-1.7838,-1.7806,-1.7782,-1.7786,-1.7749,-1.7759,-1.7721,-1.7787,-1.7794,-1.7697,-1.7697,-1.7696,-1.7696,-1.7696,-1.7955,-1.7956,-1.7944,-1.7938,-1.7937,-1.7899,-1.7904,-1.7872,-1.7843,-1.7853,-1.7848,-1.7847,-1.7841,-1.7853,-1.7853,-1.7853,-1.7854,-1.7854,-1.7854,-1.8037,-1.8021,-1.803,-1.8013,-1.8007,-1.7995,-1.796,-1.7953,-1.7938,-1.7914,-1.7914,-1.7879,-1.78,-1.778,-1.7858,-1.7857,-1.7856,-1.7856,-1.7856,-1.8134,-1.8107,-1.812,-1.8114,-1.809,-1.809,-1.805,-1.8039,-1.8028,-1.8032,-1.7995,-1.7942,-1.7924,-1.7916,-1.7899,-1.8003,-1.8003,-1.8003,-1.8003,-1.8196,-1.8184,-1.8189,-1.8182,-1.8171,-1.8135,-1.815,-1.8122,-1.809,-1.8081,-1.8061,-1.8037,-1.803,-1.8016,-1.8006,-1.7989,-1.8114,-1.8114,-1.8114,-1.8253,-1.8238,-1.8257,-1.8224,-1.8203,-1.8185,-1.8197,-1.8189,-1.8147,-1.8118,-1.8073,-1.8068,-1.8028,-1.8017,-1.7987,-1.7972,-1.7941,0,0]}]]